Weather History for Big Delta, AK

Change the Weather History Date:

Saturday, August 17, 2013

  Actual Average Record
Temperature  
Mean Temperature 60 °F -  
Max Temperature 75 °F 61 °F 80 °F (2004)
Min Temperature 46 °F 44 °F 41 °F (1998)
Degree Days  
Heating Degree Days 4    
Growing Degree Days 10 (Base 50)    
Moisture  
Dew Point 46 °F    
Average Humidity 62    
Maximum Humidity 89    
Minimum Humidity 20    
Precipitation  
Precipitation 0.12 in - - ()
Sea Level Pressure  
Sea Level Pressure 29.58 in    
Wind  
Wind Speed 6 mph (SSW)    
Max Wind Speed 18 mph    
Max Gust Speed 24 mph    
Visibility 6 miles    
Events Rain , Thunderstorm    
Averages and records for this station are not official NWS values.
T = Trace of Precipitation, MM = Missing Value Source: NWS Daily Summary

Daily Weather History Graph

Daily Weather History Graph

Search for Another Location

Airport:

Trip Planner

Search our weather history database for the weather conditions in past years. The results will help you decide how hot, cold, wet, or windy it might be!

Date:

Astronomy

Aug. 17, 2013 Rise Set
Actual Time 5:42 AM AKDT 9:48 PM AKDT
Civil Twilight 4:40 AM AKDT 10:50 PM AKDT
Nautical Twilight 2:41 AM AKDT 12:41 AM AKDT
Astronomical Twilight Sun does not rise Sun does not rise
Moon 7:49 PM AKDT (8/17) 1:07 AM AKDT (8/17)
Length of Visible Light 18h 10m
Length of Day
16h 06m
Waxing Gibbous, 85% of the Moon is Illuminated
Aug 17
Waxing Gibbous
Aug 20
Full
Aug 28
Last Quarter
Sep 5
New
Sep 12
First Quarter

Hourly Weather History & Observations

Time (AKDT) Temp. Dew Point Humidity Pressure Visibility Wind Dir Wind Speed Gust Speed Precip Events Conditions
12:16 AM 53.6 °F 44.6 °F 72% 29.65 in 5.0 mi WSW 8.1 mph - N/A   Haze
12:53 AM 54.0 °F 45.0 °F 72% 29.65 in 6.0 mi SW 8.1 mph - N/A   Haze
1:53 AM 52.0 °F 45.0 °F 77% 29.66 in 6.0 mi WSW 5.8 mph - N/A   Haze
2:53 AM 51.1 °F 44.1 °F 77% 29.66 in 6.0 mi SW 4.6 mph - N/A   Haze
3:53 AM 50.0 °F 44.1 °F 80% 29.65 in 5.0 mi SW 4.6 mph - N/A   Haze
4:53 AM 48.9 °F 43.0 °F 80% 29.65 in 6.0 mi SSW 4.6 mph - N/A   Haze
5:53 AM 48.0 °F 42.1 °F 80% 29.65 in 5.0 mi Calm Calm - N/A   Smoke
6:53 AM 46.9 °F 41.0 °F 80% 29.65 in 6.0 mi ESE 3.5 mph - N/A   Smoke
7:53 AM 50.0 °F 42.1 °F 74% 29.64 in 5.0 mi ESE 3.5 mph - N/A   Smoke
8:53 AM 53.1 °F 44.1 °F 71% 29.64 in 5.0 mi ESE 5.8 mph - N/A   Smoke
9:53 AM 59.0 °F 45.0 °F 60% 29.63 in 5.0 mi East 4.6 mph - N/A   Smoke
10:53 AM 61.0 °F 46.0 °F 58% 29.62 in 5.0 mi Variable 3.5 mph - N/A   Smoke
11:53 AM 66.0 °F 45.0 °F 47% 29.60 in 10.0 mi Calm Calm - N/A   Smoke
12:53 PM 70.0 °F 44.1 °F 39% 29.58 in 6.0 mi NNE 5.8 mph - N/A   Smoke
1:53 PM 72.0 °F 42.1 °F 34% 29.57 in 6.0 mi Variable 3.5 mph - N/A   Smoke
2:53 PM 73.0 °F 42.1 °F 33% 29.54 in 6.0 mi Variable 5.8 mph - N/A   Smoke
3:53 PM 75.0 °F 42.1 °F 31% 29.52 in 6.0 mi SE 3.5 mph - N/A   Smoke
4:53 PM 73.9 °F 42.1 °F 32% 29.51 in 6.0 mi NNW 8.1 mph - N/A   Smoke
5:46 PM 73.4 °F 42.8 °F 33% 29.51 in 2.0 mi NNW 5.8 mph - N/A   Smoke
5:53 PM 73.0 °F 43.0 °F 34% 29.51 in 2.0 mi NW 6.9 mph - N/A   Smoke
6:00 PM 71.6 °F 44.6 °F 38% 29.51 in 2.0 mi NNW 8.1 mph - N/A   Smoke
6:10 PM 71.6 °F 42.8 °F 35% 29.51 in 1.5 mi NNW 4.6 mph - N/A   Smoke
6:20 PM 71.6 °F 44.6 °F 38% 29.52 in 3.0 mi SE 16.1 mph 24.2 mph N/A   Smoke
6:35 PM 66.2 °F 46.4 °F 49% 29.52 in 7.0 mi SE 18.4 mph 24.2 mph N/A   Smoke
6:53 PM 66.0 °F 48.9 °F 54% 29.53 in 6.0 mi ESE 15.0 mph - 0.00 in Rain , Thunderstorm Thunderstorms and Rain
7:19 PM 64.4 °F 48.2 °F 56% 29.52 in 6.0 mi ESE 15.0 mph - 0.00 in   Smoke
7:53 PM 64.0 °F 48.0 °F 56% 29.54 in 6.0 mi East 11.5 mph - 0.00 in   Smoke
8:28 PM 57.2 °F 53.6 °F 88% 29.55 in 2.5 mi Calm Calm - 0.04 in Rain Light Rain
8:39 PM 57.2 °F 53.6 °F 88% 29.55 in 3.0 mi WSW 5.8 mph - 0.06 in Rain Rain
8:48 PM 57.2 °F 53.6 °F 88% 29.55 in 2.0 mi WSW 6.9 mph - 0.10 in Rain Rain
8:53 PM 57.9 °F 53.1 °F 84% 29.55 in 3.0 mi WSW 9.2 mph - 0.11 in Rain Light Rain
9:28 PM 57.2 °F 53.6 °F 88% 29.54 in 9.0 mi West 9.2 mph - 0.01 in   Overcast
9:53 PM 57.0 °F 54.0 °F 89% 29.55 in 10.0 mi WSW 5.8 mph - 0.01 in Rain Light Rain
10:53 PM 57.0 °F 54.0 °F 89% 29.55 in 10.0 mi SSW 4.6 mph - 0.00 in Rain Light Rain
11:53 PM 57.0 °F 53.1 °F 87% 29.52 in 10.0 mi SSW 9.2 mph - 0.00 in Rain Light Rain